sat.trackr.live / text

‹ back to catalog

STARLINK-34827

NORAD 65038 · 2025-161Z

PAYLOAD ACTIVE UNKNOWN

§ Identity

Operator
Country
US
Launch date
2025-07-30
Launch site
AFWTR
Launch vehicle
Mass (kg)
RCS (m²)

Purposes: comms

External: N2YO · Heavens-Above · Gunter

§ Orbital elements

Epoch: 2026-09-19T22:38:17.195712Z

Period
93.85 min
Inclination
53.1582°
Eccentricity
0.0001280
Mean motion
15.34413401 rev/d
Perigee alt
461.8 km
Apogee alt
463.5 km
Semi-major
6,840.8 km
B*
3.8189e-4
RAAN
108.1739°
Arg perigee
90.4711°
Mean anomaly
269.6438°
Rev number
6,402

§ Raw data

STARLINK-348271 65038U 25161Z   26262.94325458  .00012554  00000+0  38189-3 0  99932 65038  53.1582 108.1739 0001280  90.4711 269.6438 15.34413401 64026

JSON: /api/v1/satellites/65038 · /tle

For live sub-satellite position, see the globe view (requires WebGL).

§ Visibility from observer

Set your observer location to see the next 7 days of passes ≥ 10°. The values pass through the URL so the page stays shareable.

No JS? Fill the form by hand. The geolocation button needs JavaScript.